Погода в Эльбане

Россия / Хабаровский край     50°05′32″N   136°30′15″E
темп.,
°C
ветер,
м/с
пор.,
м/с
влажн.,
%
обл.,
%
осадки,
мм/ч
давл.,
гПа
погр.,
м
27 ноября, сб
сб2701:00−15юз119872 0.0 10239
04:00−16юз219994 0.0 102414
07:00−17ююз2310094 0.0 102535
10:00−14ююз269890 0.0 1026134
13:00−9ююз3593100 0.0 1025310
16:00−9ююз369695 0.1 1026244
19:00−15юз1110098 0.0 102720
22:00−14юз2598100 0.1 1028104
28 ноября, вс
вс2801:00−12ююз389699 0.1 1028277
04:00−13ююз3896100 0.3 1028258
07:00−15юз389899 0.1 1028203
10:00−14юз3897100 0.1 1028258
13:00−11юз4119299 0.0 1026448
16:00−11зюз31194100 0.1 1023390
19:00−14зюз2299100 0.0 102227
22:00−13юз2297100 0.0 102045
29 ноября, пн
пн2901:00−13юз1198100 0.0 101913
04:00−13ссз1198100 0.0 101715
07:00−11св1396100 0.1 1016110
10:00−9всв2695100 1.4 1017271
13:00−8всв1290100 0.4 1018326
16:00−9ююз119567 0.5 102046
19:00−14зюз119998 0.0 102313
22:00−13зюз1198100 0.1 102420
30 ноября, вт
вт3001:00−15ю2298100 0.2 102531
04:00−15юз1298100 0.5 102541
07:00−16ююз1199100 0.2 102415
10:00−15ююз2495100 0.2 1023169
13:00−12ююз2392100 0.0 1022271
16:00−12юз1195100 0.1 101942
19:00−14ссв2397100 0.0 101757
22:00−12св41091100 0.0 1015298
1 декабря, ср
ср101:00−10ссв71583100 0.0 1012523
04:00−10ссв91882100 0.2 1007778
07:00−10ссв112090100 2.0 1003843
10:00−10ссв112089100 5.0 1001921
13:00−9ссв122085100 1.8 9951012
16:00−8ссв112181100 2.8 9911137
19:00−8с102081100 3.1 9901266
22:00−7с81778100 4.3 9881252